This is the latest recevied weather packets stored in our database for station/object SP4LIN-15. If no packets are shown the sender has not sent any weather packets the latest 10 day(s).
| Time | Temp. | Humidity | Pressure | Rain* | Wind** | Luminosity | Snow |
|---|---|---|---|---|---|---|---|
| 1777774478 | 11.67° C | 62% | 1008.7 hPa | 0 mm | - | - | - |
| 1777773578 | 11.11° C | 63% | 1008.7 hPa | 0 mm | - | - | - |
| 1777772678 | 10.56° C | 63% | 1008.8 hPa | 0 mm | - | - | - |
| 1777771778 | 11.67° C | 61% | 1008.7 hPa | 0 mm | - | - | - |
| 1777770878 | 11.67° C | 61% | 1008.7 hPa | 0 mm | - | - | - |
| 1777769978 | 11.67° C | 60% | 1008.9 hPa | 0 mm | - | - | - |
| 1777769078 | 12.22° C | 60% | 1009.1 hPa | 0 mm | - | - | - |
| 1777768178 | 11.67° C | 62% | 1009 hPa | 0 mm | - | - | - |
| 1777767278 | 10.56° C | 65% | 1009 hPa | 0 mm | - | - | - |
| 1777766378 | 10° C | 64% | 1009.2 hPa | 0 mm | - | - | - |
| 1777765478 | 10° C | 64% | 1009.2 hPa | 0 mm | - | - | - |
| 1777764578 | 10° C | 64% | 1009.3 hPa | 0 mm | - | - | - |
| 1777763678 | 10° C | 61% | 1009.4 hPa | 0 mm | - | - | - |
| 1777762778 | 10° C | 60% | 1009.4 hPa | 0 mm | - | - | - |
| 1777761878 | 10° C | 59% | 1009.5 hPa | 0 mm | - | - | - |
| 1777760978 | 10.56° C | 58% | 1009.5 hPa | 0 mm | - | - | - |
| 1777760078 | 11.11° C | 55% | 1009.5 hPa | 0 mm | - | - | - |
| 1777759178 | 11.67° C | 55% | 1009.5 hPa | 0 mm | - | - | - |
| 1777758278 | 12.22° C | 53% | 1009.6 hPa | 0 mm | - | - | - |
| 1777757378 | 12.22° C | 53% | 1009.7 hPa | 0 mm | - | - | - |
| 1777756478 | 12.78° C | 53% | 1009.6 hPa | 0 mm | - | - | - |
| 1777755578 | 12.78° C | 51% | 1009.5 hPa | 0 mm | - | - | - |
| 1777754678 | 12.78° C | 51% | 1009.7 hPa | 0 mm | - | - | - |
| 1777753778 | 12.78° C | 51% | 1009.6 hPa | 0 mm | - | - | - |
| 1777752878 | 12.78° C | 50% | 1009.7 hPa | 0 mm | - | - | - |
* Rain latest hour (hover to see other rain measurements)
** Current wind speed in m/s (hover to see current wind gust speed)